Location: Cuzcurrita-R�o Tir�n
(42.5415°N, 2.9642°W)
Time: 21:37:41
(UTC+00:00)

BREEZE-M DEB (TANK) - Pass Details

Date: 17 January 2021
Orbit: 317 x 20340 km, 49.3° (Epoch: 02 March)

Event Time Altitude Azimuth Distance (km) Brightness Sun altitude
Rises 17:59:43 0° 293° (WNW) 2,120 6.6 -9.8°
Reaches altitude 10° 18:01:06 10° 286° (WNW) 1,434 5.9 -10.1°
Maximum altitude 18:03:40 49° 209° (SSW) 765 3.9 -10.5°
Drops below altitude 10° 18:10:22 10° 136° (SE) 3,708 6.7 -11.7°
Sets 18:16:32 0° 132° (SE) 6,526 8.0 -12.8°
